TimeCDT,TemperatureF,Dew PointF,Humidity,Sea Level PressureIn,VisibilityMPH,Wind Direction,Wind SpeedMPH,Gust SpeedMPH,PrecipitationIn,Events,Conditions,WindDirDegrees,DateUTC
12:53 AM,42.1,27.0,55,29.95,10.0,Calm,Calm,-,N/A,,Overcast,0,2014-04-11 05:53:00
1:53 AM,42.1,28.0,58,29.96,10.0,Calm,Calm,-,N/A,,Mostly Cloudy,0,2014-04-11 06:53:00
2:53 AM,39.0,30.9,73,29.97,10.0,Calm,Calm,-,N/A,,Overcast,0,2014-04-11 07:53:00
3:53 AM,45.0,30.9,58,29.97,10.0,NW,6.9,-,N/A,,Overcast,320,2014-04-11 08:53:00
4:53 AM,45.0,34.0,65,29.97,10.0,North,6.9,-,N/A,,Overcast,350,2014-04-11 09:53:00
5:53 AM,44.1,36.0,73,29.98,10.0,NNW,5.8,-,0.00,,Overcast,330,2014-04-11 10:53:00
6:53 AM,42.1,37.0,82,29.97,10.0,NNE,8.1,-,0.01,,Overcast,20,2014-04-11 11:53:00
7:53 AM,43.0,37.0,80,29.98,10.0,NE,4.6,-,N/A,,Overcast,40,2014-04-11 12:53:00
8:53 AM,44.1,37.9,79,29.98,10.0,South,3.5,-,N/A,,Overcast,180,2014-04-11 13:53:00
9:53 AM,48.0,39.0,71,29.98,10.0,SE,3.5,-,N/A,,Mostly Cloudy,130,2014-04-11 14:53:00
10:53 AM,52.0,37.9,59,29.99,10.0,SSW,3.5,-,N/A,,Mostly Cloudy,200,2014-04-11 15:53:00
11:53 AM,57.9,35.1,42,29.99,-9999.0,Variable,4.6,-,N/A,,Partly Cloudy,0,2014-04-11 16:53:00
12:53 PM,60.1,30.0,32,29.98,10.0,West,11.5,18.4,N/A,,Scattered Clouds,280,2014-04-11 17:53:00
1:53 PM,63.0,30.9,30,29.98,10.0,West,12.7,19.6,N/A,,Scattered Clouds,260,2014-04-11 18:53:00
2:53 PM,62.1,27.0,26,29.97,10.0,West,13.8,-,N/A,,Partly Cloudy,270,2014-04-11 19:53:00
3:53 PM,64.0,26.1,24,29.94,10.0,NW,12.7,-,N/A,,Scattered Clouds,310,2014-04-11 20:53:00
4:53 PM,64.0,25.0,23,29.93,10.0,West,8.1,-,N/A,,Clear,280,2014-04-11 21:53:00
5:53 PM,62.1,26.1,25,29.93,10.0,West,6.9,-,N/A,,Partly Cloudy,270,2014-04-11 22:53:00
6:53 PM,60.1,25.0,26,29.93,10.0,WNW,5.8,-,N/A,,Clear,290,2014-04-11 23:53:00
7:53 PM,55.9,26.1,32,29.94,10.0,Calm,Calm,-,N/A,,Clear,0,2014-04-12 00:53:00
8:53 PM,52.0,32.0,47,29.96,10.0,Calm,Calm,-,N/A,,Clear,0,2014-04-12 01:53:00
9:53 PM,51.1,30.9,46,29.95,10.0,ESE,4.6,-,N/A,,Clear,110,2014-04-12 02:53:00
10:53 PM,48.9,34.0,56,29.94,10.0,East,4.6,-,N/A,,Mostly Cloudy,90,2014-04-12 03:53:00
11:53 PM,52.0,28.0,40,29.92,10.0,East,5.8,-,N/A,,Mostly Cloudy,100,2014-04-12 04:53:00